Location: Anglesey
(53.1800°N, 4.2200°W)
Time: 16:05:02
(UTC+01:00)

Envisat - Pass Details

Date: 14 October 2017
Orbit: 764 x 766 km, 98.2° (Epoch: 23 October)

Event Time Altitude Azimuth Distance (km) Brightness Sun altitude
Exits shadow 21:59:35 22° 236° (WSW) 1,638 4.9 -32.1°
Maximum altitude 22:01:21 27° 268° (W) 1,462 4.8 -32.3°
Drops below altitude 10° 22:05:37 10° 325° (NW) 2,314 6.2 -32.8°
Sets 22:08:18 0° 338° (NNW) 3,246 7.0 -33.2°
